Regional Weather Roundup
Issued by NWS Charleston, SC

Current Version | Previous Version | Graphics & Text | Print | Product List | Glossary On
Versions: 1 2 3 4 5 6 7 8 9 10 11 12 13 14 15 16 17 18 19 20 21 22 23 24 25 26 27 28 29 30 31 32 33 34 35 36 37 38 39 40 41 42 43 44 45 46 47 48 49 50
000
ASUS42 KCHS 221112
RWRCHS

REGIONAL WEATHER ROUNDUP
NATIONAL WEATHER SERVICE CHARLESTON SC
700 AM EDT SAT JUL 22 2017

NOTE: "FAIR" INDICATES FEW OR NO CLOUDS BELOW 12,000 FEET WITH NO
SIGNIFICANT WEATHER AND/OR OBSTRUCTIONS TO VISIBILITY.

NOT ALL STATIONS ARE QUALITY CONTROLLED. USE DATA WITH CAUTION...
ESPECIALLY DEWPOINT OBSERVATIONS.

SCZ027-030-031-034>040-042>050-221200-
...SOUTHEAST SOUTH CAROLINA...

CITY           SKY/WX    TMP DP  RH WIND       PRES   REMARKS
N CHARLESTON   PTCLDY    76  74  93 SW3       30.01R
WATERFRONT PRK   N/A     80  77  90 VRB3      29.99R
JOHNS ISLAND   FAIR      79  75  89 CALM      30.01S
PINOPOLIS        N/A     77  77 100 VRB2      29.94R
MONCKS CORNER  FAIR      72  72 100 CALM      30.01S
SUMMERVILLE    FOG       73  73 100 CALM      30.02S VSB 1/4
BEAUFORT MCAS  CLEAR     75  75 100 SW3       30.02R
BEAUFORT ARPT  FAIR      77  72  83 SW3       30.01S FOG
HILTON HEAD IS CLEAR     75  75 100 CALM      30.03R
WALTERBORO     SUNNY     72  72 100 SW3       30.03R
ALLENDALE      NOT AVBL

...SOUTHERN MIDLANDS AND PEE DEE...

CITY           SKY/WX    TMP DP  RH WIND       PRES   REMARKS
GEORGETOWN     FAIR      72  72 100 CALM      30.02S
KINGSTREE      CLOUDY    73  72  94 CALM      30.01R FOG
ORANGEBURG     CLEAR     73  71  93 S3        30.02R FOG
BARNWELL       FAIR      73  73 100 CALM      30.03R
AIKEN          FAIR      70  70 100 S6        30.05R
MANNING        FAIR      75  75 100 SW12      30.01S
COLUMBIA       PTCLDY    74  71  91 CALM      30.00R
SUMTER         CLEAR     74  72  93 CALM      29.98R
FLORENCE       CLEAR     75  75 100 SW3       30.00R
MYRTLE BEACH   CLEAR     77  75  94 SW6       30.01S
N MYRTLE BEACH CLEAR     78  75  90 SW7       30.00R

$$

GAZ063-065-086>088-099>101-113>116-118-119-134>141-150-221200-
...SOUTHEAST GEORGIA...

CITY           SKY/WX    TMP DP  RH WIND       PRES   REMARKS
SAVANNAH ARPT  PTCLDY    74  71  91 CALM      30.03R
HUNTER AAF     CLEAR     73  71  96 CALM      30.00S
FORT STEWART   CLEAR     72  70  93 CALM      30.01R
STATESBORO     CLEAR     72  32  23 CALM      30.03R
SYLVANIA       SUNNY     72  72 100 CALM      30.04R FOG
CLAXTON        FAIR      71  70  98 CALM      30.03R FOG

...CSRA...CENTRAL AND FAR SOUTHEAST GEORGIA...

CITY           SKY/WX    TMP DP  RH WIND       PRES   REMARKS
THOMSON        CLEAR     71  69  95 W5        30.07R
AUGUSTA-BUSH   CLEAR     73  71  93 S3        30.01R
AUGUSTA-DANIEL CLEAR     74  69  85 S6        30.02R
SWAINSBORO     CLOUDY    72  72 100 CALM      30.04R FOG
VIDALIA        CLEAR     72  72 100 CALM      30.04R
EASTMAN        FAIR      73  73 100 CALM      30.06R
HAZLEHURST     FAIR      73  73 100 S3        30.02R
ALMA           FOG       71  70  96 CALM      30.04R VSB 3/4
WAYCROSS       CLEAR     74  74 100 W3        30.04R
JESUP          NOT AVBL
BAXLEY         FAIR      72  72 100 CALM      30.03R FOG
BRUNSWICK      FOG       72  72 100 CALM      30.04R VSB 1
SAINT SIMONS   CLEAR     75  73  93 W5        30.03R

$$

SCZ027-028-034-036>038-045-046-048>050-GAZ119-141-221200-
...LAKE AND SUPPLEMENTAL COASTAL OBSERVATIONS...

STATION/POSITION TIME  TEMP    WIND        PRES    WAVE   SWELL
                       AIR SEA DIR/SP/G            HT/PER HT/PER/DIR
                 (UTC) (F)     (DEG/KT/KT) (MB)    (FT/S) (FT/S/D)
WINYAH BAY       0945   77     250/  2     1016.0
LAKE MURRAY      NOT AVBL
ACE BASIN NERRS  0945   78        CALM     1016.0
FORT PULASKI     1048   78 86  270/  4/  5 1016.9R
SAPELO ISLAND    1000   76     260/  3     1016.0

$$

ANZ835-935-AMZ111-154-330-350-352-354-370-450-454-472-221200-
...C-MAN AND BUOY OBSERVATIONS...

STATION/POSITION TIME  TEMP    WIND        PRES    WAVE   SWELL
                       AIR SEA DIR/SP/G            HT/PER HT/PER/DIR
                 (UTC) (F)     (DEG/KT/KT) (MB)    (FT/S) (FT/S/D)
BUOY 41004       1050   82 83  230/ 10/ 12 1016.0R   3/ 9   2/140/ 9
BUOY 41008       1050   80 82  280/  8/ 10 1016.1R   2/ 9   2/100/ 9
FOLLY BEACH CMAN 1000   82     210/ 12/ 14 1016.5S
CAPERS NEARSHORE 1008   79 83  220/ 10/ 16 1015.7R
FRIPP NEARSHORE  1008   81 84  280/ 10/ 12 1015.7R


STATION/POSITION TIME  TEMP    WIND        PRES    WAVE   SWELL
                       AIR SEA DIR/SP/G            HT/PER HT/PER/DIR
                 (UTC) (F)     (DEG/KT/KT) (MB)    (FT/S) (FT/S/D)
5E ST. MARYS GA  1030      82                N/A     2/ 8
FRYING PAN BUOY  1050   83 83  230/ 14/ 16 1015.9R   3/ 8   2/130/ 8
BUOY 41025       1050   82 84  250/ 19/ 21 1015.0R   4/ 5   2/160/ 9
CAPE LOOKOUT NC  1000   80     240/ 10/ 13 1015.2R
BUOY 41002       1050   83 83  220/ 12/ 14 1018.1R   4/10   3/110/10
BUOY 41010       1050   83 85  220/ 12/ 14 1017.6R   3/ 9   2/110/ 9
ST AUGUSTINE FL  1100   75 81  240/  5/  7 1017.6R


$$




USA.gov is the U.S. government's official web portal to all federal, state and local government web resources and services.